Regional Weather Roundup
Issued by NWS

Home | Current Version | Previous Version | Graphics & Text | Print | Product List | Glossary On
Versions: 1 2 3 4 5 6 7 8 9 10 11 12 13 14 15 16 17 18 19 20 21 22 23 24 25 26 27 28 29 30 31 32 33 34 35 36 37 38 39 40 41 42 43 44 45 46 47 48 49 50
000
ASUS43 KLSX 300910
RWRMO

WEATHER SUMMARY FOR MISSOURI
NATIONAL WEATHER SERVICE SPRINGFIELD MO
400 AM CDT SAT JUL 30 2016

NOTE: "FAIR" INDICATES FEW OR NO CLOUDS BELOW 12,000 FEET WITH NO
       SIGNIFICANT WEATHER AND/OR OBSTRUCTIONS TO VISIBILITY.
       CURRENT SKY AND/OR WEATHER CONDITIONS ARE NOT AVAILABLE FOR
       CHILLICOTHE AND FARMINGTON.

MOZ001>031-035>038-043-044-053-054-301000-
...NORTHERN AND WESTERN MISSOURI...

CITY           SKY/WX    TMP DP  RH WIND       PRES   REMARKS
KANSAS CTY INT CLEAR     64  60  87 NW3       30.01S
KANSAS C DTWN  CLEAR     69  63  81 N3        30.00R
LEE`S SUMMIT   CLEAR     68  63  84 N3        30.01S
ST JOSEPH      CLEAR     61  60  97 W5        30.01S
CHILLICOTHE      N/A     64  62  93 CALM      30.00F
KIRKSVILLE     CLOUDY    65  64  97 NW3       29.99S

$$
MOZ066>068-077>081-088>096-101>105-301000-
...SOUTHWEST MISSOURI...

CITY           SKY/WX    TMP DP  RH WIND       PRES   REMARKS
SPRINGFIELD    CLEAR     70  67  90 CALM      29.98F
JOPLIN         PTCLDY    71  69  93 CALM      29.99S
BRANSON        FOG       70  70 100 CALM      30.00S VSB<1/4

$$
MOZ032>034-039>042-045>050-055>058-069>072-301000-
...CENTRAL MISSOURI...

CITY           SKY/WX    TMP DP  RH WIND       PRES   REMARKS
COLUMBIA       PTCLDY    66  64  93 N3        29.98R
JEFFERSON CITY CLEAR     67  65  93 CALM      29.96S
ROLLA          CLEAR     67  66  97 CALM      29.97S
SEDALIA        CLEAR     67  64  90 NW5       29.99S
WHITEMAN AFB   CLEAR     65  65 100 N5        29.97F
OSAGE BEACH    FOG       68  66  94 CALM      29.99R VSB 1/4

$$
MOZ051-052-059>065-301000-
...EAST CENTRAL MISSOURI...

CITY           SKY/WX    TMP DP  RH WIND       PRES   REMARKS
ST LOUIS INTL  PTCLDY    73  67  81 NW3       29.96R
SPIRIT OF STL  CLEAR     68  68 100 CALM      29.94S
ST CHARLES     CLEAR     71  70  96 SW3       29.94S

$$
MOZ072>076-082>087-097>100-106>115-301000-
...SOUTH CENTRAL AND SOUTHEAST MISSOURI...

CITY           SKY/WX    TMP DP  RH WIND       PRES   REMARKS
CAPE GIRARDEAU PTCLDY    69  68  96 CALM      29.93F
FARMINGTON     FOG       70  70 100 S3        29.97S VSB 1
POPLAR BLUFF   CLOUDY    71  70  96 CALM      29.94F
WEST PLAINS    CLOUDY    69  66  90 W3        30.00F

$$




USA.gov is the U.S. government's official web portal to all federal, state and local government web resources and services.